| time (UTC) | temp C | wind direction | speed KPH | gust KPH | rain 1hr cm | rain 24hr cm | rain mn cm | humidity % | barometer mb |
| 20260506005503 | 23 | 154 | 3.2 | 14.5 | 0.00 | 0.00 | 0.00 | 40 | 1010.3 |
| 20260506005003 | 23 | 208 | 1.6 | 14.5 | 0.00 | 0.00 | 0.00 | 40 | 1010.2 |
| 20260506004502 | 23 | 254 | 1.6 | 8.0 | 0.00 | 0.00 | 0.00 | 40 | 1010.1 |
| 20260506004223 | 23 | 156 | 1.6 | 8.0 | 0.00 | 0.00 | 0.00 | 39 | 1010.0 |
| 20260506003502 | 23 | 207 | 1.6 | 6.4 | 0.00 | 0.00 | 0.00 | 39 | 1010.0 |
| 20260506003004 | 24 | 248 | 1.6 | 8.0 | 0.00 | 0.00 | 0.00 | 38 | 1010.0 |
| 20260506002458 | 24 | 221 | 1.6 | 8.0 | 0.00 | 0.00 | 0.00 | 38 | 1009.9 |
| 20260506002437 | 24 | 127 | 1.6 | 12.9 | 0.00 | 0.00 | 0.00 | 37 | 1010.0 |
| 20260506001458 | 24 | 84 | 1.6 | 12.9 | 0.00 | 0.00 | 0.00 | 37 | 1009.9 |
| 20260506000958 | 24 | 137 | 1.6 | 6.4 | 0.00 | 0.00 | 0.00 | 37 | 1009.8 |
| 20260506000459 | 25 | 174 | 1.6 | 6.4 | 0.00 | 0.00 | 0.00 | 37 | 1009.7 |
| 20260505235958 | 25 | 167 | 1.6 | 6.4 | 0.00 | 0.00 | 0.00 | 36 | 1009.7 |
| 20260505235500 | 25 | 227 | 1.6 | 11.3 | 0.00 | 0.00 | 0.00 | 36 | 1009.7 |
| 20260505235000 | 25 | 243 | 3.2 | 11.3 | 0.00 | 0.00 | 0.00 | 35 | 1009.7 |
| 20260505234727 | 25 | 186 | 1.6 | 9.7 | 0.00 | 0.00 | 0.00 | 34 | 1009.6 |
| 20260505234221 | 25 | 251 | 1.6 | 8.0 | 0.00 | 0.00 | 0.00 | 35 | 1009.6 |
| 20260505233457 | 25 | 249 | 1.6 | 8.0 | 0.00 | 0.00 | 0.00 | 33 | 1009.6 |
| 20260505233451 | 26 | 17 | 1.6 | 8.0 | 0.00 | 0.00 | 0.00 | 33 | 1009.6 |
| 20260505232715 | 26 | 173 | 3.2 | 12.9 | 0.00 | 0.00 | 0.00 | 32 | 1009.6 |
| 20260505231958 | 26 | 176 | 4.8 | 12.9 | 0.00 | 0.00 | 0.00 | 31 | 1009.6 |
| 20260505231949 | 26 | 231 | 4.8 | 12.9 | 0.00 | 0.00 | 0.00 | 31 | 1009.7 |
| 20260505231000 | 26 | 174 | 3.2 | 12.9 | 0.00 | 0.00 | 0.00 | 31 | 1009.7 |
| 20260505230458 | 26 | 241 | 3.2 | 14.5 | 0.00 | 0.00 | 0.00 | 30 | 1009.6 |
| 20260505225959 | 26 | 249 | 4.8 | 14.5 | 0.00 | 0.00 | 0.00 | 30 | 1009.6 |
| 20260505225451 | 26 | 317 | 4.8 | 16.1 | 0.00 | 0.00 | 0.00 | 29 | 1009.7 |
| 20260505224944 | 26 | 254 | 4.8 | 24.1 | 0.00 | 0.00 | 0.00 | 28 | 1009.7 |
| 20260505224440 | 26 | 259 | 6.4 | 24.1 | 0.00 | 0.00 | 0.00 | 27 | 1009.7 |
| 20260505223934 | 26 | 183 | 4.8 | 22.5 | 0.00 | 0.00 | 0.00 | 28 | 1009.7 |
| 20260505223427 | 26 | 180 | 4.8 | 22.5 | 0.00 | 0.00 | 0.00 | 29 | 1009.7 |
| 20260505222922 | 26 | 167 | 3.2 | 12.9 | 0.00 | 0.00 | 0.00 | 32 | 1009.5 |
| 20260505222650 | 26 | 202 | 3.2 | 14.5 | 0.00 | 0.00 | 0.00 | 31 | 1009.5 |
| 20260505221909 | 26 | 300 | 3.2 | 14.5 | 0.00 | 0.00 | 0.00 | 31 | 1009.6 |
| 20260505221403 | 26 | 196 | 3.2 | 14.5 | 0.00 | 0.00 | 0.00 | 30 | 1009.5 |
| 20260505220900 | 26 | 298 | 3.2 | 14.5 | 0.00 | 0.00 | 0.00 | 31 | 1009.7 |
| 20260505220400 | 26 | 237 | 4.8 | 16.1 | 0.00 | 0.00 | 0.00 | 29 | 1009.6 |
| 20260505215859 | 26 | 127 | 6.4 | 16.1 | 0.00 | 0.00 | 0.00 | 29 | 1009.5 |
| 20260505215358 | 26 | 98 | 4.8 | 16.1 | 0.00 | 0.00 | 0.00 | 29 | 1009.4 |
| 20260505214900 | 26 | 196 | 6.4 | 22.5 | 0.00 | 0.00 | 0.00 | 29 | 1009.6 |
| 20260505214359 | 26 | 271 | 6.4 | 22.5 | 0.00 | 0.00 | 0.00 | 29 | 1009.5 |
| 20260505213858 | 26 | 266 | 4.8 | 25.7 | 0.00 | 0.00 | 0.00 | 28 | 1009.5 |
| 20260505213359 | 26 | 274 | 6.4 | 25.7 | 0.00 | 0.00 | 0.00 | 28 | 1009.5 |
| 20260505212859 | 27 | 333 | 6.4 | 19.3 | 0.00 | 0.00 | 0.00 | 28 | 1009.5 |
| 20260505212356 | 27 | 288 | 6.4 | 24.1 | 0.00 | 0.00 | 0.00 | 27 | 1009.4 |
| 20260505211857 | 27 | 205 | 6.4 | 27.4 | 0.00 | 0.00 | 0.00 | 28 | 1009.3 |
| 20260505211353 | 27 | 263 | 6.4 | 27.4 | 0.00 | 0.00 | 0.00 | 27 | 1009.4 |
| 20260505210853 | 27 | 153 | 6.4 | 16.1 | 0.00 | 0.00 | 0.00 | 29 | 1009.3 |
| 20260505210355 | 27 | 92 | 6.4 | 17.7 | 0.00 | 0.00 | 0.00 | 28 | 1009.4 |
| 20260505205854 | 27 | 261 | 4.8 | 17.7 | 0.00 | 0.00 | 0.00 | 29 | 1009.3 |
| 20260505205355 | 27 | 196 | 4.8 | 24.1 | 0.00 | 0.00 | 0.00 | 29 | 1009.4 |
| 20260505204854 | 27 | 216 | 6.4 | 24.1 | 0.00 | 0.00 | 0.00 | 28 | 1009.3 |
| 20260505204615 | 27 | 298 | 6.4 | 25.7 | 0.00 | 0.00 | 0.00 | 29 | 1009.4 |
| 20260505204107 | 28 | 154 | 4.8 | 25.7 | 0.00 | 0.00 | 0.00 | 29 | 1009.4 |
| 20260505203336 | 28 | 213 | 6.4 | 25.7 | 0.00 | 0.00 | 0.00 | 30 | 1009.4 |
| 20260505202830 | 28 | 286 | 6.4 | 25.7 | 0.00 | 0.00 | 0.00 | 29 | 1009.4 |
| 20260505202325 | 28 | 180 | 8.0 | 22.5 | 0.00 | 0.00 | 0.00 | 28 | 1009.4 |
| 20260505201818 | 28 | 271 | 8.0 | 24.1 | 0.00 | 0.00 | 0.00 | 27 | 1009.4 |
| 20260505201312 | 28 | 167 | 4.8 | 24.1 | 0.00 | 0.00 | 0.00 | 28 | 1009.4 |
| 20260505201044 | 29 | 259 | 6.4 | 29.0 | 0.00 | 0.00 | 0.00 | 28 | 1009.5 |
| 20260505200301 | 28 | 204 | 6.4 | 29.0 | 0.00 | 0.00 | 0.00 | 27 | 1009.4 |
| 20260505200019 | 28 | 256 | 6.4 | 25.7 | 0.00 | 0.00 | 0.00 | 28 | 1009.4 |
| 20260505195248 | 28 | 155 | 6.4 | 25.7 | 0.00 | 0.00 | 0.00 | 28 | 1009.5 |
| 20260505195004 | 28 | 207 | 6.4 | 25.7 | 0.00 | 0.00 | 0.00 | 30 | 1009.6 |
| 20260505194456 | 28 | 213 | 4.8 | 16.1 | 0.00 | 0.00 | 0.00 | 30 | 1009.5 |
| 20260505193958 | 29 | 140 | 4.8 | 16.1 | 0.00 | 0.00 | 0.00 | 31 | 1009.6 |
| 20260505193224 | 29 | 251 | 4.8 | 14.5 | 0.00 | 0.00 | 0.00 | 29 | 1009.7 |
| 20260505192719 | 30 | 215 | 4.8 | 14.5 | 0.00 | 0.00 | 0.00 | 28 | 1009.7 |
| 20260505192212 | 30 | 223 | 4.8 | 14.5 | 0.00 | 0.00 | 0.00 | 29 | 1009.7 |
| 20260505191707 | 29 | 248 | 4.8 | 27.4 | 0.00 | 0.00 | 0.00 | 29 | 1010.0 |
| 20260505191200 | 29 | 134 | 6.4 | 27.4 | 0.00 | 0.00 | 0.00 | 29 | 1009.8 |
| 20260505190655 | 29 | 222 | 6.4 | 20.9 | 0.00 | 0.00 | 0.00 | 28 | 1010.1 |
| 20260505190148 | 30 | 145 | 4.8 | 17.7 | 0.00 | 0.00 | 0.00 | 26 | 1010.1 |
| 20260505185643 | 29 | 164 | 6.4 | 19.3 | 0.00 | 0.00 | 0.00 | 30 | 1010.3 |
| 20260505185137 | 28 | 222 | 8.0 | 22.5 | 0.00 | 0.00 | 0.00 | 29 | 1010.3 |
| 20260505184631 | 28 | 161 | 6.4 | 22.5 | 0.00 | 0.00 | 0.00 | 29 | 1010.4 |
| 20260505184124 | 28 | 259 | 4.8 | 14.5 | 0.00 | 0.00 | 0.00 | 28 | 1010.5 |
| 20260505183618 | 29 | 134 | 6.4 | 17.7 | 0.00 | 0.00 | 0.00 | 29 | 1010.8 |
| 20260505183119 | 28 | 329 | 6.4 | 17.7 | 0.00 | 0.00 | 0.00 | 28 | 1010.6 |
| 20260505182619 | 29 | 182 | 6.4 | 17.7 | 0.00 | 0.00 | 0.00 | 30 | 1010.9 |
| 20260505182119 | 28 | 203 | 6.4 | 17.7 | 0.00 | 0.00 | 0.00 | 28 | 1010.7 |
| 20260505181619 | 29 | 250 | 4.8 | 12.9 | 0.00 | 0.00 | 0.00 | 29 | 1010.8 |
| 20260505181119 | 28 | 94 | 4.8 | 12.9 | 0.00 | 0.00 | 0.00 | 29 | 1010.9 |
| 20260505180620 | 28 | 126 | 4.8 | 16.1 | 0.00 | 0.00 | 0.00 | 29 | 1010.9 |
| 20260505180117 | 28 | 317 | 8.0 | 20.9 | 0.00 | 0.00 | 0.00 | 31 | 1010.9 |
| 20260505175619 | 28 | 178 | 6.4 | 20.9 | 0.00 | 0.00 | 0.00 | 30 | 1011.0 |
| 20260505175118 | 28 | 236 | 6.4 | 20.9 | 0.00 | 0.00 | 0.00 | 32 | 1011.2 |
| 20260505174618 | 28 | 198 | 6.4 | 20.9 | 0.00 | 0.00 | 0.00 | 31 | 1011.2 |
| 20260505174119 | 28 | 279 | 4.8 | 22.5 | 0.00 | 0.00 | 0.00 | 29 | 1011.1 |
| 20260505173834 | 28 | 246 | 6.4 | 22.5 | 0.00 | 0.00 | 0.00 | 30 | 1011.2 |
| 20260505173115 | 28 | 86 | 4.8 | 20.9 | 0.00 | 0.00 | 0.00 | 30 | 1011.0 |
| 20260505172617 | 29 | 217 | 3.2 | 16.1 | 0.00 | 0.00 | 0.00 | 30 | 1011.2 |
| 20260505172331 | 27 | 261 | 4.8 | 14.5 | 0.00 | 0.00 | 0.00 | 36 | 1011.1 |
| 20260505171617 | 27 | 42 | 4.8 | 17.7 | 0.00 | 0.00 | 0.00 | 33 | 1011.3 |
| 20260505171117 | 27 | 192 | 4.8 | 17.7 | 0.00 | 0.00 | 0.00 | 34 | 1011.2 |
| 20260505170611 | 27 | 240 | 6.4 | 20.9 | 0.00 | 0.00 | 0.00 | 34 | 1011.3 |
| 20260505170327 | 27 | 269 | 6.4 | 20.9 | 0.00 | 0.00 | 0.00 | 35 | 1011.4 |
| 20260505165820 | 27 | 240 | 4.8 | 16.1 | 0.00 | 0.00 | 0.00 | 36 | 1011.4 |
| 20260505165052 | 27 | 179 | 6.4 | 20.9 | 0.00 | 0.00 | 0.00 | 37 | 1011.5 |
| 20260505164546 | 27 | 201 | 4.8 | 20.9 | 0.00 | 0.00 | 0.00 | 36 | 1011.7 |
| 20260505164041 | 27 | 234 | 6.4 | 17.7 | 0.00 | 0.00 | 0.00 | 37 | 1011.7 |
| 20260505163804 | 26 | 209 | 6.4 | 22.5 | 0.00 | 0.00 | 0.00 | 37 | 1011.8 |
| 20260505163028 | 26 | 190 | 6.4 | 22.5 | 0.00 | 0.00 | 0.00 | 37 | 1012.0 |
| 20260505162523 | 26 | 234 | 4.8 | 20.9 | 0.00 | 0.00 | 0.00 | 37 | 1012.0 |
| 20260505162024 | 26 | 210 | 4.8 | 20.9 | 0.00 | 0.00 | 0.00 | 38 | 1012.2 |
| 20260505161524 | 26 | 192 | 4.8 | 17.7 | 0.00 | 0.00 | 0.00 | 38 | 1012.2 |
| 20260505161023 | 26 | 111 | 4.8 | 17.7 | 0.00 | 0.00 | 0.00 | 39 | 1012.3 |
| 20260505160523 | 26 | 141 | 4.8 | 16.1 | 0.00 | 0.00 | 0.00 | 40 | 1012.4 |
| 20260505153022 | 25 | 142 | 3.2 | 14.5 | 0.00 | 0.00 | 0.00 | 43 | 1012.5 |
| 20260505153010 | 25 | 144 | 3.2 | 12.9 | 0.00 | 0.00 | 0.00 | 41 | 1012.5 |
| 20260505152019 | 25 | 252 | 3.2 | 11.3 | 0.00 | 0.00 | 0.00 | 41 | 1012.5 |
| 20260505151521 | 24 | 207 | 3.2 | 11.3 | 0.00 | 0.00 | 0.00 | 43 | 1012.4 |
| 20260505151018 | 24 | 333 | 4.8 | 17.7 | 0.00 | 0.00 | 0.00 | 44 | 1012.5 |
| 20260505150518 | 23 | 180 | 3.2 | 17.7 | 0.00 | 0.00 | 0.00 | 46 | 1012.5 |
| 20260505140516 | 21 | 140 | 1.6 | 8.0 | 0.00 | 0.00 | 0.00 | 52 | 1012.6 |
| 20260505130242 | 17 | 215 | 3.2 | 9.7 | 0.00 | 0.00 | 0.00 | 60 | 1012.5 |
| 20260505125013 | 17 | 130 | 3.2 | 16.1 | 0.00 | 0.00 | 0.00 | 61 | 1012.7 |
| 20260505124507 | 16 | 241 | 3.2 | 16.1 | 0.00 | 0.00 | 0.00 | 61 | 1012.8 |
| 20260505124001 | 16 | 222 | 1.6 | 12.9 | 0.00 | 0.00 | 0.00 | 61 | 1012.8 |
| 20260505123455 | 16 | 265 | 3.2 | 9.7 | 0.00 | 0.00 | 0.00 | 62 | 1012.8 |
| 20260505122949 | 16 | 186 | 3.2 | 9.7 | 0.00 | 0.00 | 0.00 | 62 | 1012.8 |
| 20260505122444 | 16 | 198 | 1.6 | 9.7 | 0.00 | 0.00 | 0.00 | 63 | 1012.7 |
| 20260505121938 | 16 | 65 | 1.6 | 8.0 | 0.00 | 0.00 | 0.00 | 64 | 1012.6 |
| 20260505121433 | 16 | 217 | 3.2 | 11.3 | 0.00 | 0.00 | 0.00 | 63 | 1012.5 |
| 20260505120932 | 16 | 243 | 3.2 | 11.3 | 0.00 | 0.00 | 0.00 | 63 | 1012.4 |
| 20260505120431 | 16 | 194 | 3.2 | 11.3 | 0.00 | 0.00 | 0.00 | 63 | 1012.5 |
| 20260505115929 | 16 | 305 | 3.2 | 11.3 | 0.00 | 0.00 | 0.00 | 63 | 1012.6 |
| 20260505115430 | 15 | 304 | 3.2 | 12.9 | 0.00 | 0.00 | 0.00 | 63 | 1012.5 |
| 20260505114929 | 15 | 288 | 3.2 | 14.5 | 0.00 | 0.00 | 0.00 | 63 | 1012.6 |
| 20260505114430 | 15 | 158 | 3.2 | 14.5 | 0.00 | 0.00 | 0.00 | 64 | 1012.5 |
| 20260505113929 | 15 | 219 | 3.2 | 6.4 | 0.00 | 0.00 | 0.00 | 63 | 1012.4 |
| 20260505113428 | 15 | 241 | 1.6 | 9.7 | 0.00 | 0.00 | 0.00 | 63 | 1012.3 |
| 20260505112926 | 15 | 174 | 1.6 | 9.7 | 0.00 | 0.00 | 0.00 | 64 | 1012.3 |
| 20260505112904 | 15 | 184 | 3.2 | 11.3 | 0.00 | 0.00 | 0.00 | 63 | 1012.3 |
| 20260505111922 | 15 | 196 | 1.6 | 11.3 | 0.00 | 0.00 | 0.00 | 63 | 1012.3 |
| 20260505111422 | 15 | 204 | 3.2 | 14.5 | 0.00 | 0.00 | 0.00 | 64 | 1012.2 |
| 20260505110923 | 15 | 250 | 1.6 | 14.5 | 0.00 | 0.00 | 0.00 | 63 | 1012.1 |
| 20260505110421 | 15 | 248 | 1.6 | 11.3 | 0.00 | 0.00 | 0.00 | 63 | 1012.1 |
| 20260505110150 | 15 | 300 | 1.6 | 11.3 | 0.00 | 0.00 | 0.00 | 63 | 1012.0 |
| 20260505101852 | 15 | 250 | 3.2 | 14.5 | 0.00 | 0.00 | 0.00 | 61 | 1011.8 |
| 20260505101346 | 15 | 140 | 1.6 | 8.0 | 0.00 | 0.00 | 0.00 | 61 | 1011.8 |
| 20260505100839 | 15 | 168 | 1.6 | 8.0 | 0.00 | 0.00 | 0.00 | 61 | 1011.7 |
| 20260505100333 | 15 | 212 | 3.2 | 9.7 | 0.00 | 0.00 | 0.00 | 62 | 1011.7 |
| 20260505095827 | 15 | 211 | 3.2 | 11.3 | 0.00 | 0.00 | 0.00 | 61 | 1011.7 |
| 20260505095321 | 15 | 237 | 3.2 | 14.5 | 0.00 | 0.00 | 0.00 | 61 | 1011.7 |
| 20260505095040 | 15 | 164 | 3.2 | 14.5 | 0.00 | 0.00 | 0.00 | 61 | 1011.8 |
| 20260505094309 | 15 | 122 | 3.2 | 11.3 | 0.00 | 0.00 | 0.00 | 61 | 1011.7 |
| 20260505094029 | 15 | 203 | 3.2 | 11.3 | 0.00 | 0.00 | 0.00 | 61 | 1011.6 |
| 20260505093517 | 15 | 349 | 3.2 | 11.3 | 0.00 | 0.00 | 0.00 | 61 | 1011.6 |
| 20260505093013 | 15 | 142 | 3.2 | 11.3 | 0.00 | 0.00 | 0.00 | 61 | 1011.6 |
| 20260505092246 | 15 | 211 | 3.2 | 12.9 | 0.00 | 0.00 | 0.00 | 60 | 1011.6 |
| 20260505091739 | 15 | 218 | 3.2 | 12.9 | 0.00 | 0.00 | 0.00 | 61 | 1011.6 |
| 20260505091233 | 15 | 264 | 3.2 | 16.1 | 0.00 | 0.00 | 0.00 | 61 | 1011.5 |
| 20260505090728 | 15 | 123 | 3.2 | 16.1 | 0.00 | 0.00 | 0.00 | 60 | 1011.4 |
| 20260505090221 | 15 | 209 | 3.2 | 14.5 | 0.00 | 0.00 | 0.00 | 61 | 1011.5 |
| 20260505085715 | 15 | 217 | 3.2 | 14.5 | 0.00 | 0.00 | 0.00 | 60 | 1011.5 |
| 20260505085208 | 16 | 140 | 3.2 | 16.1 | 0.00 | 0.00 | 0.00 | 60 | 1011.4 |
| 20260505084927 | 16 | 212 | 3.2 | 16.1 | 0.00 | 0.00 | 0.00 | 60 | 1011.4 |
| 20260505084639 | 16 | 254 | 1.6 | 11.3 | 0.00 | 0.00 | 0.00 | 60 | 1011.5 |
| 20260505083653 | 16 | 286 | 1.6 | 8.0 | 0.00 | 0.00 | 0.00 | 60 | 1011.4 |
| 20260505083145 | 16 | 25 | 1.6 | 4.8 | 0.00 | 0.00 | 0.00 | 60 | 1011.3 |
| 20260505082638 | 16 | 219 | 1.6 | 6.4 | 0.00 | 0.00 | 0.00 | 60 | 1011.5 |
| 20260505082134 | 16 | 244 | 3.2 | 11.3 | 0.00 | 0.00 | 0.00 | 60 | 1011.5 |
| 20260505081627 | 16 | 239 | 3.2 | 11.3 | 0.00 | 0.00 | 0.00 | 60 | 1011.4 |
| 20260505081122 | 16 | 232 | 1.6 | 16.1 | 0.00 | 0.00 | 0.00 | 60 | 1011.4 |
| 20260505080615 | 16 | 229 | 1.6 | 16.1 | 0.00 | 0.00 | 0.00 | 60 | 1011.4 |
| 20260505080110 | 16 | 216 | 1.6 | 8.0 | 0.00 | 0.00 | 0.00 | 60 | 1011.3 |
| 20260505075603 | 16 | 257 | 1.6 | 8.0 | 0.00 | 0.00 | 0.00 | 61 | 1011.4 |
| 20260505075058 | 16 | 207 | 3.2 | 11.3 | 0.00 | 0.00 | 0.00 | 61 | 1011.3 |
| 20260505074551 | 16 | 232 | 1.6 | 11.3 | 0.00 | 0.00 | 0.00 | 61 | 1011.2 |
| 20260505074045 | 16 | 183 | 1.6 | 6.4 | 0.00 | 0.00 | 0.00 | 61 | 1011.1 |
| 20260505073539 | 16 | 199 | 1.6 | 6.4 | 0.00 | 0.00 | 0.00 | 61 | 1011.1 |
| 20260505073033 | 16 | 231 | 1.6 | 6.4 | 0.00 | 0.00 | 0.00 | 61 | 1011.1 |
| 20260505072527 | 16 | 189 | 3.2 | 11.3 | 0.00 | 0.00 | 0.00 | 61 | 1011.1 |
| 20260505072021 | 16 | 307 | 3.2 | 11.3 | 0.00 | 0.00 | 0.00 | 61 | 1011.1 |
| 20260505071516 | 16 | 223 | 1.6 | 6.4 | 0.00 | 0.00 | 0.00 | 61 | 1011.0 |
| 20260505071009 | 16 | 148 | 1.6 | 8.0 | 0.00 | 0.00 | 0.00 | 61 | 1011.1 |
| 20260505070503 | 16 | 284 | 3.2 | 8.0 | 0.00 | 0.00 | 0.00 | 62 | 1011.1 |
| 20260505065957 | 16 | 227 | 3.2 | 9.7 | 0.00 | 0.00 | 0.00 | 62 | 1011.0 |
| 20260505065452 | 16 | 229 | 1.6 | 9.7 | 0.00 | 0.00 | 0.00 | 62 | 1011.0 |
| 20260505064945 | 16 | 254 | 1.6 | 6.4 | 0.00 | 0.00 | 0.00 | 62 | 1010.8 |
| 20260505064439 | 16 | 284 | 3.2 | 11.3 | 0.00 | 0.00 | 0.00 | 63 | 1010.9 |
| 20260505063933 | 15 | 277 | 3.2 | 11.3 | 0.00 | 0.00 | 0.00 | 64 | 1010.8 |
| 20260505063427 | 15 | 195 | 1.6 | 8.0 | 0.00 | 0.00 | 0.00 | 64 | 1010.9 |
| 20260505062921 | 15 | 217 | 1.6 | 11.3 | 0.00 | 0.00 | 0.00 | 65 | 1010.8 |
| 20260505062415 | 15 | 166 | 3.2 | 11.3 | 0.00 | 0.00 | 0.00 | 66 | 1010.9 |
| 20260505061909 | 15 | 235 | 3.2 | 12.9 | 0.00 | 0.00 | 0.00 | 66 | 1010.8 |
| 20260505061403 | 15 | 254 | 1.6 | 12.9 | 0.00 | 0.00 | 0.00 | 66 | 1010.8 |
| 20260505060858 | 15 | 273 | 1.6 | 6.4 | 0.00 | 0.00 | 0.00 | 67 | 1010.8 |
| 20260505060358 | 15 | 227 | 1.6 | 6.4 | 0.00 | 0.00 | 0.00 | 68 | 1010.7 |
| 20260505055859 | 15 | 176 | 1.6 | 6.4 | 0.00 | 0.00 | 0.00 | 67 | 1010.8 |
| 20260505055400 | 15 | 206 | 0.0 | 4.8 | 0.00 | 0.00 | 0.00 | 68 | 1010.7 |
| 20260505054859 | 15 | 207 | 0.0 | 4.8 | 0.00 | 0.00 | 0.00 | 68 | 1010.8 |
| 20260505054359 | 15 | 131 | 0.0 | 3.2 | 0.00 | 0.00 | 0.00 | 68 | 1010.8 |
| 20260505053855 | 15 | 130 | 1.6 | 6.4 | 0.00 | 0.00 | 0.00 | 68 | 1010.8 |
| 20260505053358 | 15 | 288 | 1.6 | 6.4 | 0.00 | 0.00 | 0.00 | 68 | 1010.8 |
| 20260505052856 | 15 | 188 | 0.0 | 4.8 | 0.00 | 0.00 | 0.00 | 69 | 1010.8 |
| 20260505052355 | 15 | 154 | 0.0 | 3.2 | 0.00 | 0.00 | 0.00 | 68 | 1010.8 |
| 20260505051854 | 15 | 250 | 0.0 | 3.2 | 0.00 | 0.00 | 0.00 | 68 | 1010.8 |
| 20260505051353 | 15 | 211 | 0.0 | 1.6 | 0.00 | 0.00 | 0.00 | 68 | 1010.8 |
| 20260505050851 | 15 | 231 | 0.0 | 3.2 | 0.00 | 0.00 | 0.00 | 69 | 1010.8 |
| 20260505050349 | 15 | 234 | 0.0 | 3.2 | 0.00 | 0.00 | 0.00 | 69 | 1010.9 |
| 20260505041339 | 16 | 171 | 0.0 | 1.6 | 0.00 | 0.00 | 0.00 | 65 | 1010.8 |
| 20260505040838 | 16 | 171 | 0.0 | 1.6 | 0.00 | 0.00 | 0.00 | 65 | 1010.8 |
| 20260505040338 | 16 | 171 | 0.0 | 1.6 | 0.00 | 0.00 | 0.00 | 65 | 1010.9 |
| 20260505035840 | 16 | 224 | 0.0 | 1.6 | 0.00 | 0.00 | 0.00 | 64 | 1010.8 |
| 20260505035333 | 17 | 231 | 0.0 | 1.6 | 0.00 | 0.00 | 0.00 | 63 | 1010.7 |
| 20260505035054 | 17 | 213 | 0.0 | 0.0 | 0.00 | 0.00 | 0.00 | 63 | 1010.8 |
| 20260505034321 | 17 | 213 | 0.0 | 1.6 | 0.00 | 0.00 | 0.00 | 63 | 1010.8 |
| 20260505033816 | 17 | 213 | 0.0 | 4.8 | 0.00 | 0.00 | 0.00 | 62 | 1010.9 |
| 20260505033309 | 17 | 200 | 0.0 | 4.8 | 0.00 | 0.00 | 0.00 | 62 | 1010.8 |
| 20260505032803 | 17 | 142 | 0.0 | 4.8 | 0.00 | 0.00 | 0.00 | 62 | 1010.9 |
| 20260505032258 | 17 | 188 | 0.0 | 4.8 | 0.00 | 0.00 | 0.00 | 61 | 1010.9 |
| 20260505031751 | 17 | 214 | 0.0 | 4.8 | 0.00 | 0.00 | 0.00 | 60 | 1010.9 |
| 20260505031245 | 17 | 247 | 0.0 | 3.2 | 0.00 | 0.00 | 0.00 | 60 | 1011.0 |
| 20260505030739 | 17 | 341 | 0.0 | 3.2 | 0.00 | 0.00 | 0.00 | 59 | 1011.0 |
| 20260505030234 | 17 | 188 | 0.0 | 3.2 | 0.00 | 0.00 | 0.00 | 59 | 1011.0 |
| 20260505025727 | 18 | 188 | 1.6 | 4.8 | 0.00 | 0.00 | 0.00 | 59 | 1011.0 |
| 20260505025706 | 18 | 212 | 1.6 | 4.8 | 0.00 | 0.00 | 0.00 | 59 | 1011.0 |
| 20260505024716 | 18 | 198 | 0.0 | 3.2 | 0.00 | 0.00 | 0.00 | 58 | 1011.0 |
| 20260505024210 | 18 | 234 | 0.0 | 3.2 | 0.00 | 0.00 | 0.00 | 58 | 1011.0 |
| 20260505023703 | 18 | 234 | 0.0 | 3.2 | 0.00 | 0.00 | 0.00 | 57 | 1011.0 |
| 20260505023158 | 18 | 108 | 0.0 | 3.2 | 0.00 | 0.00 | 0.00 | 56 | 1010.9 |
| 20260505022658 | 18 | 313 | 0.0 | 4.8 | 0.00 | 0.00 | 0.00 | 56 | 1010.9 |
| 20260505022154 | 18 | 235 | 0.0 | 4.8 | 0.00 | 0.00 | 0.00 | 56 | 1010.9 |
| 20260505021653 | 18 | 199 | 0.0 | 4.8 | 0.00 | 0.00 | 0.00 | 55 | 1010.9 |
| 20260505021151 | 18 | 252 | 0.0 | 3.2 | 0.00 | 0.00 | 0.00 | 54 | 1010.9 |
| 20260505020912 | 19 | 242 | 0.0 | 3.2 | 0.00 | 0.00 | 0.00 | 53 | 1010.9 |
| 20260505020152 | 19 | 234 | 0.0 | 3.2 | 0.00 | 0.00 | 0.00 | 53 | 1010.9 |
| 20260505015653 | 19 | 234 | 0.0 | 3.2 | 0.00 | 0.00 | 0.00 | 53 | 1010.8 |
| 20260505015156 | 19 | 123 | 0.0 | 3.2 | 0.00 | 0.00 | 0.00 | 52 | 1010.8 |
| 20260505015133 | 19 | 190 | 0.0 | 3.2 | 0.00 | 0.00 | 0.00 | 51 | 1010.8 |
| 20260505014153 | 20 | 202 | 0.0 | 3.2 | 0.00 | 0.00 | 0.00 | 51 | 1010.7 |
| 20260505013654 | 20 | 243 | 0.0 | 3.2 | 0.00 | 0.00 | 0.00 | 50 | 1010.7 |
| 20260505013421 | 20 | 252 | 0.0 | 3.2 | 0.00 | 0.00 | 0.00 | 50 | 1010.7 |
| 20260505012649 | 20 | 207 | 0.0 | 3.2 | 0.00 | 0.00 | 0.00 | 49 | 1010.4 |
| 20260505012149 | 20 | 244 | 1.6 | 6.4 | 0.00 | 0.00 | 0.00 | 49 | 1010.6 |
| 20260505011649 | 20 | 198 | 1.6 | 6.4 | 0.00 | 0.00 | 0.00 | 48 | 1010.6 |
| 20260505011149 | 20 | 252 | 1.6 | 6.4 | 0.00 | 0.00 | 0.00 | 49 | 1010.6 |
| 20260505010648 | 20 | 104 | 0.0 | 4.8 | 0.00 | 0.00 | 0.00 | 47 | 1010.5 |
| 20260505010147 | 20 | 220 | 1.6 | 8.0 | 0.00 | 0.00 | 0.00 | 46 | 1010.4 |
| 20260505005909 | 21 | 243 | 1.6 | 8.0 | 0.00 | 0.00 | 0.00 | 47 | 1010.4 |